FREGAT DEB, 45994

Orbit data source: Space-Track

FREGAT DEB, 45994 is space debris in LEO originally from a launch on Mon, 18 Jul 2011 UTC launched from the Tyuratam Missile And Space Complex (TTMTR). Debris objects in space refer to the collection of defunct objects orbiting the Earth. Examples of debris include non-operational satellites, rocket bodies, and fragments generated from explosions, collisions, or faulty payload assembly.

Loading next visibility...
Identifier
45994, 2011-037GV
Orbit
LEO
Country
Flag of CISCIS
Related business
Manufacturer
Lavochkin
Mission
Spacecraft
Bus & Motor
Unknown
Mass
Unknown
Launch date (UTC)
2011-07-18 (14 years ago)
Launch vehicle
Unknown
Launch site
Tyuratam Missile And Space Complex (TTMTR)
Object type
Payload
Rocket body
Debris
Shape & HBR
Unknown shape, 0.1 m
Radar Cross Section
Small (<0.1 m²)

Expand to show TLE details & history
Last TLE update: 6 days ago

TLE from 6 days ago
0 FREGAT DEB
1 45994U 11037GV  25285.00700614  .00000217  00000-0  54999-3 0  9992
2 45994  51.5117 136.0372 1695760 223.0144 122.5146 10.95203817207999
Epoch: 2025-10-12T00:10Z
TLE epoch observation values (Epoch: 2025-10-12T00:10:05.330Z)
Latitude
-0.00002°
Longitude
112.68465°
Altitude
3,120.407 km
Speed
6.117 km/s
True Right ascension
09h 04m 08s
True Declination
0° 00' 00"
Sunlit
Object was in daylight at epoch
Visualization orbit readout
Latitude
Unknown
Longitude
Unknown
Altitude
Unknown
Speed
Unknown
Apparent Right ascension
Unknown
Apparent Declination
Unknown
Sunlit
N/A
Visualization observer readout
Local Sidereal Time
02:59:20
Azimuth
Unknown
Elevation
Unknown
Doppler factor
Unknown
Orbital elements
Apogee altitude
3,640.054 km
Perigee altitude
734.993 km
Semi-major axis
8,565.661 km
Eccentricity
0.16958
Inclination
51.5117°
RAAN
136.0372°
Arg. of periapsis
223.0144°
True anomaly
137.06384°
Mean anomaly
122.5146°
Eccentric anomaly
129.96166°
Mean motion
2.7378 °/min
Orbital period
131.49 mins
BSTAR
0.00054999
Loading maneuver chart data...
Computing Atmospheric mass density...
Loading historical data...
Loading historical data...
Loading historical data...
Loading historical data...
Loading historical data...
Loading historical data...
Loading historical data...

Documentation

Showing up to 5 results
|